Flag for Germany Weather past 2 weeks in Oranienburg, Brandenburg, Germany

Now
27 °F

Passing clouds.


Feels Like: 27 °F
Forecast: 24 / 29 °F
Wind: 2 mph from Northwest

Location: Berlin-Tegel

Current Time: Dec 26, 2014 at 7:02:13 PM

Latest Report: Dec 26, 2014 at 6:00 PM


Visibility: 28 mi

Pressure: 30.31 "Hg

Humidity: 91%

Dew point: 25 °F

Location of OranienburgLocation

Historic Weather in Oranienburg — Graph

°F

Oranienburg temperature yesterday

Maximum temperature yesterday: 43 °F (at 2:00 PM)
Minimum temperature yesterday: 36 °F (at 11:00 PM)
Average temperature yesterday: 40 °F

Past Weeks' High & Low Weather Summary

 TemperatureHumidityPressure
High53 °F (Dec 19, 1:00 AM)99% (Dec 17, 11:00 PM)30.33 "Hg (Dec 17, 11:00 PM)
Low29 °F (Dec 26, 5:00 PM)64% (Dec 25, 6:00 PM)29.35 "Hg (Dec 12, 9:00 PM)
Average43 °F87%29.86 "Hg
* Reported Dec 11 5:00 PM — Dec 26 5:00 PM, Oranienburg, Weather by CustomWeather, © 2014

Note: Actual official high and low records may vary slightly from our data, if they occured in-between our weather recording intervals... More about our weather records

Advertising

Oranienburg weather history for previous 24 hours

 ConditionsComfort  
Time TempWeatherWind HumidityBarometerVisibility
5:00 PM
Dec 26
29 °FPassing clouds.2 mph87%30.32 "Hg25 mi
4:00 PM31 °FPassing clouds.3 mph92%30.32 "Hg22 mi
3:00 PM32 °FLow clouds.5 mph95%30.32 "Hg7 mi
2:00 PM33 °FSnow flurries. Overcast.5 mph96%30.32 "Hg1 mi
1:00 PM33 °FOvercast.3 mph95%30.32 "Hg14 mi
12:00 PM33 °FLow clouds.2 mph95%30.33 "Hg9 mi
11:00 AM31 °FLow clouds.1 mph98%30.32 "Hg8 mi
10:00 AM32 °FLight snow. Overcast.1 mph99%30.32 "Hg4 mi
9:00 AM31 °FSnow. Low clouds.1 mph99%30.31 "Hg1 mi
8:00 AM33 °FLight snow. Low clouds.2 mph99%30.30 "Hg1 mi
7:00 AM32 °FOvercast.1 mph96%30.28 "Hg19 mi
6:00 AM33 °FLow clouds.1 mph95%30.28 "Hg16 mi
5:00 AM33 °FLow clouds.2 mph97%30.28 "Hg19 mi
4:00 AM33 °FPassing clouds.1 mph93%30.26 "Hg25 mi
3:00 AM34 °FOvercast.2 mph91%30.25 "Hg25 mi
2:00 AM34 °FPassing clouds.2 mph91%30.23 "Hg25 mi
1:00 AM35 °FOvercast.2 mph89%30.20 "Hg25 mi
12:00 AM36 °FOvercast.3 mph82%30.17 "Hg25 mi
11:00 PM
Dec 25
36 °FOvercast.6 mph84%30.13 "Hg25 mi
10:00 PM36 °FLight rain. Overcast.7 mph87%30.08 "Hg19 mi
9:00 PM38 °FRain. Low clouds.5 mph95%30.01 "Hg6 mi
8:00 PM39 °FRain. Overcast.7 mph91%29.98 "Hg9 mi
7:00 PM42 °FLight rain. Overcast.9 mph67%29.97 "Hg25 mi
Weather by CustomWeather, © 2014

See weather overviewHow to use our weather pages